Montana Department of Transportation

Main Content

Accidents and Incidents Report

Hourly Weather Roundup

ASUS45 KTFX 222210
RWRMT 
MONTANA REGIONAL WEATHER ROUNDUP
NATIONAL WEATHER SERVICE GREAT FALLS MT
300 PM MST THU FEB 22 2018

NOTE: "FAIR" INDICATES FEW OR NO CLOUDS BELOW 12000 FEET WITH NO
SIGNIFICANT WEATHER AND/OR OBSTRUCTIONS TO VISIBILITY.

MTZ001.007-043-222300-
WEST OF THE DIVIDE
  
CITY           SKY/WX    TMP DP  RH WIND       PRES   REMARKS
KALISPELL      FAIR      25   9  50 NE15      30.10F WCI  13          
MISSOULA       PTSUNNY   22   9  57 N13G20    30.04F WCI  10          
BUTTE          CLOUDY    20   8  60 N5        29.90S                  
MULLAN PASS    LGT SNOW  15  10  80 CALM      29.87S                  
ANACONDA         N/A     18   3  53 N3        29.95S                  
DEER LODGE       N/A     18   7  62 N8        29.98F WCI   7          
HAMILTON         N/A     21  10  63 MISG      30.00F                  
PLAINS           N/A     24  10  55 CALM      30.12F                  
RONAN            N/A     16   9  73 CALM      30.12F                  
--------------------------------

MTZ008-052.055-222300-
SOUTHWEST MONTANA
  
CITY           SKY/WX    TMP DP  RH WIND       PRES   REMARKS
BOZEMAN        FAIR      17   6  62 NE5       30.00F                  
DILLON         FAIR      14  10  84 NE10      29.90F WCI   1          
ENNIS          PTSUNNY   19  10  68 N12       29.93S WCI   7          
W YELLOWSTONE  FLURRIES  18   9  68 N6        29.84S WCI   9          
THREE FORKS      N/A     20   7  57 CALM      30.00S                  
TWIN BRIDGES     N/A     19   7  60 N16       29.92  WCI   4          
--------------------------------

MTZ009-010-012-014-046-048-049-054-222300-
EAST SLOPES AND CENTRAL MONTANA
  
CITY           SKY/WX    TMP DP  RH WIND       PRES   REMARKS
CUT BANK       FAIR      13   8  81 NW7       30.14F WCI   3          
GREAT FALLS    CLOUDY    10   0  63 W3        30.15S                  
HELENA         CLOUDY    19   4  51 N10       30.07S WCI   7          
AUGUSTA        PTSUNNY   10   6  84 N14       30.10S WCI  -6          
CHOTEAU          N/A     12   7  79 N10       30.16S WCI  -1          
CONRAD           N/A     14   8  77 W7        30.17  WCI   4          
RAYNESFORD     PTSUNNY   11   1  63 NW5       30.12F                  
WHITE SULPHUR    N/A     12   3  67 CALM      29.98S                  
--------------------------------

MTZ011-013-016-021-045-047-050-051-222300-
NORTH CENTRAL MONTANA
  
CITY           SKY/WX    TMP DP  RH WIND       PRES   REMARKS
HAVRE          FAIR       2  -3  80 SW12      30.24F WCI -15          
LEWISTOWN      FAIR       9   3  77 W7        30.10S WCI  -2          
N BAR RANCH    FAIR      16  -4  41 NE10      30.08R WCI   3          
CHINOOK          N/A      5  -2  72 NW7       30.27R WCI  -7          
GEYSER         PTSUNNY   12   4  71 W7        30.11S WCI   2          
STANFORD       FAIR      11   4  72 N5        30.08S                  
--------------------------------

MTZ017.020-022.027-061-062-222300-
NORTHEAST MONTANA
  
CITY           SKY/WX    TMP DP  RH WIND       PRES   REMARKS
GLASGOW        FAIR      -4 -12  68 NW8       30.23S WCI -19          
GLENDIVE       FAIR      11   1  64 CALM      30.19S                  
JORDAN           N/A     10   2  69 NW12      30.17F WCI  -5          
MALTA          SUNNY      0  -8  71 SW8       30.24S WCI -15          
SIDNEY         FAIR      18   2  49 CALM      30.23R                  
WOLF POINT     FAIR      -1  -9  68 W9        30.25S WCI -16          
PLENTYWOOD       N/A     12   3  67 W7        30.18S WCI   2          
POPLAR           N/A      0  -8  71 W9        30.25R WCI -16          
SCOBEY           N/A     11  -3  53 S3        30.14                   
--------------------------------

MTZ028.42-056.058-222300-
SOUTHCENTRAL AND SOUTHEAST MONTANA
  
CITY           SKY/WX    TMP DP  RH WIND       PRES   REMARKS
BAKER          FAIR      16   7  67 NW7       30.11F WCI   6          
BILLINGS       FAIR      20   6  55 N5        30.09RLIVINGSTON     FAIR      19   8  62 E18       29.99S WCI   4          
MILES CITY     FAIR       1  -2  87 CALM      30.17S                  
BIG TIMBER     SUNNY     16   5  62 N14       30.06R WCI   1          
EKALAKA          N/A     14   1  56 NW6       30.03  WCI   5          
FORSYTH          N/A      3  -6  66 W5        30.17S                  
LAUREL           N/A     16   5  62 NE6       30.11R WCI   7          
ROUNDUP          N/A     13  -3  48 N13       30.03S WCI  -1          
--------------------------------

REGIONAL REPORTS...DAKOTAS
  
CITY           SKY/WX    TMP DP  RH WIND       PRES   REMARKS
WILLISTON      FAIR      11   0  61 W6        30.22S WCI   1          
MINOT          FAIR      20   7  57 NE7       30.21S WCI  11          
DICKINSON      FAIR      20   7  57 NW5       30.11F                  
BEACH          FAIR      14   5  67 N7        30.17S WCI   4          
CROSBY         FAIR      12   3  67 SW7       30.20F WCI   2          
TIOGA          FAIR      10   3  72 W8        30.19R WCI  -1          
WATFORD CITY   FAIR      12   1  62 NW8       30.20R WCI   1          
BISMARCK       FAIR      18   9  68 E6        30.22F WCI  10          
GRAND FORKS    FAIR      18  12  77 S14       30.34F WCI   4          
FARGO          CLOUDY    23  14  68 SE10      30.34F WCI  12          
BUFFALO SD       N/A      9   1  70 CALM      30.02S                  
RAPID CITY     CLOUDY    11   4  73 N6        30.05R WCI   1          
--------------------------------

REGIONAL REPORTS...WYOMING/IDAHO/WASHINGTON
  
CITY           SKY/WX    TMP DP  RH WIND       PRES   REMARKS
GILLETTE       FAIR      20   5  52 N8        29.98S WCI  10          
SHERIDAN       FAIR      22   8  55 NW5       30.03S                  
BUFFALO WY     FAIR      25   6  44 N6        29.97S WCI  18          
CODY           FAIR      17   7  64 NE10      29.96S WCI   5          
YELLOWSTONE LA   N/A     13   1  59 VRB3      29.84F                  
IDAHO FALLS    FAIR      31   9  39 S12       29.91F WCI  22          
SALMON         PTSUNNY   31  15  52 CALM      29.88F                  
BOISE          PTSUNNY   32  18  56 N8G16     30.02S WCI  25          
SPOKANE        FAIR      26  12  55 NW9       30.13S WCI  17          
--------------------------------

REGIONAL REPORTS...ALBERTA
  
CITY           SKY/WX    TMP DP  RH WIND       PRES   REMARKS
CALGARY        MOSUNNY   18   9  68 E6        30.14F WCI   9          
CARDSTON         N/A     21   9  58 E2          N/A                   
EDMONTON       SUNNY     25  10  54 W10       30.15F WCI  15          
FORT MCMURRAY  MOSUNNY   28  12  50 W20       30.04F WCI  15          
HIGH LEVEL     PTSUNNY   28  12  50 SW5       29.97F                  
LETHBRIDGE     PTSUNNY   16  10  79 SW8       30.20F WCI   5          
LLOYDMINSTER   MOSUNNY   19  10  68 W8        30.14S WCI   9          
MEDICINE HAT   FLURRIES  12   7  79 SW8       30.24S WCI   1          
MILK RIVER       N/A     18   9  68 W8          N/A  WCI   7          
PEACE RIVER    MOSUNNY   19  10  68 SW8       30.07F WCI   9          
PINCHER CREEK  PTSUNNY   14   9  79 CALM      30.14F                  
WATERTON GATE    N/A     16   3  57 NE5         N/A                   
--------------------------------

REGIONAL REPORTS...SASKATCHEWAN
  
CITY           SKY/WX    TMP DP  RH WIND       PRES   REMARKS
CYPRESS HILLS    N/A     10   5  79 NW8         N/A  WCI  -1          
ESTEVAN        MOSUNNY   14   1  57 SW8       30.19F WCI   3          
MOOSE JAW        N/A     18   7  62 W15         N/A  WCI   3          
PRINCE ALBERT  MOSUNNY   19   5  53 W16       30.15R WCI   5          
REGINA         PTSUNNY   12   1  62 W7        30.19R WCI   2          
ROCKGLEN         N/A     14   1  57 W8          N/A  WCI   3          
SASKATOON      MOSUNNY   18   9  68 W10       30.19R WCI   6          
SWIFT CURRENT  FLURRIES  12   5  73 W12       30.15S WCI  -2          
VAL MARIE        N/A     -2  -9  71 N2          N/A                   
--------------------------------